N508FX SBIL-SBCJ

Flight info

Callsign N508FX
Flight time N/A
Altitude 43000
Route DCT EDNOB/N0250F200 IFR DCT URUVA DCT XODOV DCT ELADI/N0459F400 UZ9 SUDRO UL576 ATOGU DCT CJ011
Aircraft CL30/M-SDFGIRW/S

Departure

Time N/A
Airport Bahia - Jorge Amado Airport (SBIL)

Arrival

Time 2026-05-06 21:54
Airport Carajás Airport (SBCJ)
Time Latitude Longitude Altitude Speed Heading
2026-05-06 21:43 -6.59126 -49.92459 8312 ft 288 kts 325°
2026-05-06 21:43 -6.57506 -49.93644 8111 ft 287 kts 325°
2026-05-06 21:43 -6.55885 -49.94828 7909 ft 286 kts 325°
2026-05-06 21:44 -6.54279 -49.96002 7769 ft 285 kts 325°
2026-05-06 21:44 -6.52693 -49.97161 7620 ft 284 kts 325°
2026-05-06 21:44 -6.51095 -49.98328 7470 ft 284 kts 325°
2026-05-06 21:44 -6.49493 -49.99499 7319 ft 283 kts 325°
2026-05-06 21:45 -6.47912 -50.00654 7170 ft 282 kts 325°
2026-05-06 21:45 -6.46315 -50.01820 7018 ft 282 kts 325°
2026-05-06 21:45 -6.44751 -50.02963 6870 ft 281 kts 325°
2026-05-06 21:45 -6.43165 -50.04121 6719 ft 280 kts 325°
2026-05-06 21:46 -6.41602 -50.05262 6570 ft 280 kts 325°
2026-05-06 21:46 -6.40019 -50.06419 6419 ft 279 kts 325°
2026-05-06 21:46 -6.38465 -50.07554 6270 ft 278 kts 324°
2026-05-06 21:46 -6.36904 -50.08693 6120 ft 278 kts 324°
2026-05-06 21:47 -6.35351 -50.09827 5970 ft 277 kts 324°
2026-05-06 21:47 -6.33780 -50.10974 5818 ft 276 kts 324°
2026-05-06 21:47 -6.32239 -50.12099 5669 ft 276 kts 324°
2026-05-06 21:47 -6.30699 -50.13223 5556 ft 275 kts 324°
2026-05-06 21:48 -6.29342 -50.14214 5548 ft 275 kts 324°
2026-05-06 21:48 -6.27752 -50.15374 5464 ft 275 kts 324°
2026-05-06 21:48 -6.26193 -50.16512 5362 ft 275 kts 324°
2026-05-06 21:48 -6.24906 -50.17446 5235 ft 274 kts 326°
2026-05-06 21:49 -6.23142 -50.18068 4993 ft 273 kts 350°
2026-05-06 21:49 -6.21262 -50.18361 4642 ft 271 kts 352°
2026-05-06 21:49 -6.19402 -50.18614 4292 ft 270 kts 353°
2026-05-06 21:49 -6.17553 -50.18849 3993 ft 268 kts 353°
2026-05-06 21:50 -6.15753 -50.18589 3951 ft 262 kts 26°
2026-05-06 21:50 -6.14533 -50.17413 3944 ft 237 kts 63°
2026-05-06 21:50 -6.14029 -50.15900 3950 ft 220 kts 75°
2026-05-06 21:50 -6.13695 -50.14429 3952 ft 216 kts 78°
2026-05-06 21:51 -6.13437 -50.12944 3999 ft 215 kts 80°
2026-05-06 21:51 -6.13190 -50.11458 3993 ft 215 kts 80°
2026-05-06 21:51 -6.12969 -50.09989 3754 ft 205 kts 82°
2026-05-06 21:51 -6.12795 -50.08689 3505 ft 172 kts 82°
2026-05-06 21:52 -6.12653 -50.07567 3281 ft 153 kts 82°
2026-05-06 21:52 -6.12530 -50.06561 3086 ft 136 kts 83°
2026-05-06 21:52 -6.12420 -50.05653 2915 ft 128 kts 83°
2026-05-06 21:52 -6.12313 -50.04762 2759 ft 127 kts 83°
2026-05-06 21:53 -6.12207 -50.03887 2600 ft 127 kts 83°
2026-05-06 21:53 -6.12102 -50.03000 2433 ft 127 kts 83°
2026-05-06 21:53 -6.11998 -50.02120 2266 ft 127 kts 83°
2026-05-06 21:53 -6.11899 -50.01253 2122 ft 122 kts 83°
2026-05-06 21:54 -6.11812 -50.00479 2083 ft 99 kts 82°
2026-05-06 21:54 -6.11760 -50.00088 2077 ft 8 kts 69°
2026-05-06 21:54 -6.11745 -50.00098 2077 ft 7 kts 262°
2026-05-06 21:54 -6.11748 -50.00131 2077 ft 2 kts 265°
2026-05-06 21:55 -6.11717 -50.00172 2078 ft 8 kts 350°
2026-05-06 21:55 -6.11658 -50.00179 2082 ft 4 kts 353°
2026-05-06 21:55 -6.11649 -50.00180 2084 ft 0 kts 353°
2026-05-06 21:55 -6.11606 -50.00185 2089 ft 10 kts 353°
2026-05-06 21:56 -6.11554 -50.00191 2096 ft 8 kts 353°
2026-05-06 21:56 -6.11498 -50.00211 2101 ft 10 kts 269°
2026-05-06 21:56 -6.11504 -50.00240 2097 ft 0 kts 261°
2026-05-06 21:57 -6.11504 -50.00239 2097 ft 0 kts 261°